Location: Cortada Guamacho
(10.5667°N, 67.0833°W)
Time: 04:36:49
(UTC+00:00)

SWIFT - Pass Details

Date: 05 July 2022
Orbit: 539 x 553 km, 20.6° (Epoch: 13 August)

Event Time Altitude Azimuth Distance (km) Brightness Sun altitude
Rises 01:13:22 0° 268° (W) 2,704 6.6 -30.9°
Reaches altitude 10° 01:15:46 10° 276° (W) 1,808 5.6 -31.3°
Enters shadow 01:17:36 23° 290° (WNW) 1,190 4.6 -31.7°
